Friday Harbor, WA
on Monday, January 21, 2013

Monday
Previous Day Next Day
Daily Summary
 ActualAverageRecord
Temperature
Mean Temperature °F °F  
Max Temperature 42°F 44°F 55°F (2005)
Min Temperature 34°F 36°F 27°F (2008)
Degree Days
Heating Degree Days 27    
Moisture
Dew Point 35°F   
Average Humidity 90    
Maximum Humidity 100    
Minimum Humidity 79    
Precipitation
Precipitation 0.00 in in in ()
Wind
Wind Speed 3 mph   
Max Wind Speed 7 mph   
Max Gust Speed mph   
Visibility 10 miles   
Events     
Averages and records for this station are not official NWS values.
Key: T is trace of precipitation, MM is missing value
Source: NWS Daily Summary
Seasonal Weather Averages
Time(PST)TemperatureDew PointHumidity Pressure Visibility Wind DirectionWind SpeedGust SpeedPrecipitationEvents Conditions
1:53 AM 37.0°F 36.0°F 96% 30.29 in 10.0 miles Variable 3.5 mph - N/A   Overcast
2:53 AM 37.0°F 35.1°F 93% 30.28 in 10.0 miles Variable 6.9 mph - N/A   Overcast
4:53 AM 36.0°F 35.1°F 97% 30.25 in 10.0 miles Variable 4.6 mph - N/A   Overcast
5:53 AM 36.0°F 35.1°F 97% 30.25 in 10.0 miles Calm Calm - N/A   Overcast
6:14 AM 35.6°F 35.6°F 100% 30.23 in 10.0 miles North 3.5 mph - N/A   Overcast
6:53 AM 35.1°F 33.1°F 92% 30.23 in 10.0 miles Calm Calm - N/A   Scattered Clouds
7:53 AM 34.0°F 34.0°F 100% 30.23 in 10.0 miles Calm Calm - N/A   Overcast
8:53 AM 36.0°F 34.0°F 93% 30.23 in 8.0 miles NNE 4.6 mph - N/A   Overcast
9:53 AM 37.9°F 35.1°F 89% 30.24 in 10.0 miles NNE 6.9 mph - N/A   Overcast
10:53 AM 37.9°F 35.1°F 89% 30.25 in 10.0 miles NW 3.5 mph - N/A   Overcast
11:51 AM 41.0°F 35.6°F 81% 30.23 in 10.0 miles Calm Calm - N/A   Partly Cloudy
11:53 AM 41.0°F 35.1°F 79% 30.24 in 10.0 miles North 4.6 mph - N/A   Partly Cloudy
12:53 PM 42.1°F 36.0°F 79% 30.22 in 10.0 miles ESE 3.5 mph - N/A   Partly Cloudy
1:53 PM 42.1°F 36.0°F 79% 30.20 in 10.0 miles Calm Calm - N/A   Clear
2:53 PM 41.0°F 36.0°F 82% 30.17 in 10.0 miles Calm Calm - N/A   Clear
3:53 PM 41.0°F 36.0°F 82% 30.17 in 10.0 miles Calm Calm - N/A   Clear
4:42 PM 37.4°F 33.8°F 87% 30.16 in 10.0 miles Calm Calm - N/A   Mostly Cloudy
4:53 PM 36.0°F 34.0°F 93% 30.17 in 10.0 miles Calm Calm - N/A   Overcast
5:11 PM 35.6°F 33.8°F 93% 30.15 in 10.0 miles Calm Calm - N/A   Overcast
5:53 PM 37.9°F 35.1°F 89% 30.16 in 10.0 miles Calm Calm - N/A   Overcast
6:53 PM 37.9°F 35.1°F 89% 30.15 in 10.0 miles Calm Calm - N/A   Overcast
7:53 PM 37.9°F 36.0°F 93% 30.16 in 10.0 miles Calm Calm - N/A   Overcast
8:53 PM 37.0°F 35.1°F 93% 30.16 in 10.0 miles North 4.6 mph - N/A   Overcast
9:53 PM 37.9°F 35.1°F 89% 30.16 in 9.0 miles ENE 3.5 mph - N/A   Overcast
10:53 PM 37.9°F 35.1°F 89% 30.17 in 8.0 miles East 3.5 mph - N/A   Overcast
11:53 PM 37.0°F 35.1°F 93% 30.16 in 7.0 miles East 3.5 mph - N/A   Overcast
Moon Phase
Jan. 21 Jan. 26 Feb. 03 Feb. 10 Feb. 17
Sunrise:07:53 AM (PST) Moon Rise:12:35 PM (PST)1/21
Sunset:04:53 PM (PST) Moon Set:03:28 AM (PST)1/21

Copyright © 2014 The Weather Underground, Inc.